GFSFLT2_850_spd_099.txt.gz
Wind_Speed
11 13 13 15 19 22 26 31 31 27 28 24 14 19 23 23 22 22 20 21 26 29 32 36 37 31 27 20 20 22 11 6
7 13 16 17 18 23 23 26 30 30 27 26 31 31 26 24 26 23 20 21 26 29 34 37 35 30 25 23 23 18 8 5
12 12 13 13 14 21 25 28 28 24 24 28 27 27 37 34 30 24 23 24 27 30 30 36 35 32 26 24 21 13 6 7
14 13 12 13 14 17 23 26 27 25 25 29 28 30 45 38 31 26 26 27 27 30 33 36 35 33 29 22 14 9 7 6
14 15 11 13 13 15 18 22 25 27 28 36 29 31 45 41 34 31 30 29 30 32 36 37 35 33 28 19 18 13 6 3
14 15 11 13 12 13 15 19 22 21 27 28 36 44 46 43 38 37 34 33 33 34 35 37 37 30 27 18 16 11 6 10
11 12 12 16 13 12 12 14 16 15 22 28 33 50 51 46 42 39 36 35 34 34 36 38 33 30 28 16 13 11 7 11
13 11 14 14 13 10 10 8 6 22 18 39 30 50 50 46 43 41 38 36 34 33 34 36 27 24 27 18 12 13 9 7
16 14 13 12 14 10 13 13 9 21 16 31 38 50 48 46 43 41 39 37 34 30 26 30 23 20 28 13 13 12 10 9
16 11 12 13 13 12 15 10 12 24 27 44 37 55 48 44 44 42 39 37 33 29 25 24 23 22 29 21 13 11 9 7
9 11 13 13 15 15 15 14 17 20 30 40 50 45 43 44 45 41 38 38 32 30 26 26 23 25 24 22 19 11 9 8
10 11 11 15 16 17 17 16 18 21 35 41 41 44 40 39 43 38 34 36 32 31 28 26 24 19 20 17 14 15 11 12
13 14 14 13 14 17 22 23 21 26 32 39 41 36 37 38 41 37 34 35 32 31 27 27 26 20 23 20 17 12 13 13
17 15 13 11 12 13 18 27 28 28 35 36 41 40 38 38 41 37 37 37 34 33 32 32 29 26 26 23 19 18 21 19
19 16 13 11 8 11 15 22 30 35 39 46 47 45 42 35 39 36 38 36 37 34 34 33 30 27 26 15 9 6 13 21
19 18 15 11 7 8 12 23 31 38 39 40 48 50 39 40 38 37 36 34 35 35 32 32 32 32 25 15 10 11 10 7
23 19 17 17 12 11 12 27 31 33 40 46 52 54 46 38 37 38 36 37 34 30 33 32 29 24 24 19 17 15 13 13
26 23 21 20 18 18 16 23 32 38 45 47 53 54 54 48 46 45 33 34 35 31 32 29 24 20 19 20 20 19 20 22
27 27 25 23 24 22 21 23 31 36 42 47 55 53 49 46 42 42 47 36 36 32 31 29 25 24 22 21 21 22 20 20
29 30 28 27 27 26 26 26 30 36 37 50 53 44 38 45 50 47 35 35 40 37 30 28 26 27 28 28 28 25 25 27

GFSFLT2_850_spd_105.txt.gz
Wind_Speed
12 12 13 14 14 16 20 23 25 24 27 33 31 26 26 23 9 12 15 18 21 26 27 25 24 24 22 19 16 14 15 17
10 12 13 15 15 17 18 21 23 26 28 27 30 30 35 29 25 15 15 17 23 28 27 27 25 24 20 17 15 13 11 13
11 10 10 12 15 18 21 25 26 27 27 29 32 31 26 28 28 25 22 19 29 30 29 30 26 22 20 17 15 11 9 12
13 11 10 11 12 16 21 26 28 30 32 31 33 26 30 32 27 26 26 20 30 32 34 31 28 23 20 18 14 9 6 12
15 14 13 14 14 14 18 23 29 33 35 34 32 32 30 36 35 24 29 25 32 36 37 33 27 24 23 20 14 8 8 11
18 18 17 16 15 16 16 20 27 32 32 32 33 31 33 36 30 37 37 28 35 40 37 32 26 23 22 21 13 11 8 12
22 20 19 17 17 17 18 20 24 33 32 33 39 31 35 31 32 36 36 30 37 42 38 31 26 25 23 18 14 10 7 12
25 23 19 18 17 18 19 20 22 30 34 34 39 35 37 36 36 37 34 33 39 44 41 34 28 24 23 20 15 10 8 14
27 22 19 18 16 19 20 19 20 23 27 34 38 41 41 44 44 43 43 37 42 46 41 34 28 23 23 20 15 12 10 14
25 20 18 16 17 18 19 19 20 22 23 31 41 45 43 47 48 50 47 40 44 48 43 37 29 27 26 21 17 13 11 12
22 17 15 15 15 18 18 17 19 20 20 17 32 40 45 48 49 46 48 42 46 49 47 39 32 29 26 20 18 14 11 11
19 16 15 15 16 18 17 17 16 19 21 25 21 37 43 46 45 48 43 45 48 51 48 39 34 28 24 22 17 13 10 9
21 16 17 19 18 20 18 16 16 14 16 17 26 28 43 46 42 45 45 47 49 51 49 40 31 28 26 22 18 15 12 11
21 17 20 21 18 18 19 19 15 16 13 22 28 32 44 46 43 47 47 48 50 52 51 43 34 31 31 27 21 18 18 16
22 19 22 21 19 21 21 20 19 15 16 27 34 42 46 44 46 46 47 48 50 50 51 45 38 34 31 22 12 10 21 20
22 20 23 20 17 19 21 24 22 21 15 32 38 36 42 44 44 45 48 48 46 45 44 42 39 39 34 27 18 13 12 12
23 22 23 18 17 16 15 16 17 22 18 31 35 41 48 44 44 45 48 47 43 43 39 39 36 39 38 35 24 12 11 9
25 24 23 19 16 14 17 17 20 21 24 33 44 47 44 39 36 41 44 43 39 40 37 33 34 35 35 34 31 20 15 14
27 26 25 21 18 15 17 18 17 22 23 26 42 43 43 43 42 43 44 45 41 40 40 35 35 35 33 33 33 24 18 14
30 28 26 22 20 17 15 16 17 21 21 29 33 43 44 44 44 47 47 43 42 43 38 43 36 32 32 34 34 30 23 19

GFSFLT2_850_spd_108.txt.gz
Wind_Speed
12 11 11 13 14 16 19 22 21 24 27 26 28 35 21 23 17 12 14 19 20 22 23 23 22 22 21 19 18 18 17 19
13 13 12 14 14 16 18 19 23 26 26 31 31 28 31 25 26 17 16 16 18 22 25 22 21 21 20 18 17 15 15 16
16 14 13 14 14 15 17 20 24 25 28 24 30 31 28 28 26 25 22 20 20 24 25 22 21 21 19 17 14 12 13 15
19 16 14 14 13 13 17 22 26 28 31 30 31 26 29 33 35 23 30 24 22 28 25 24 24 23 20 16 15 11 12 15
20 17 17 16 15 13 16 23 28 31 31 29 33 26 31 33 29 29 31 25 23 30 29 29 26 23 21 18 14 10 12 16
21 19 21 19 17 15 16 20 27 32 34 36 36 32 37 30 35 33 29 26 22 32 32 30 27 22 18 18 14 10 12 15
25 23 24 21 18 18 18 19 21 28 32 35 36 39 35 38 39 36 34 31 28 35 35 33 29 22 20 19 14 10 12 13
28 28 26 21 19 19 19 20 20 23 29 33 33 35 37 40 45 37 31 36 32 35 38 34 30 22 23 21 14 10 9 14
32 29 25 21 19 18 18 20 19 22 27 31 29 34 40 40 47 39 37 35 32 36 39 32 28 24 25 20 15 12 10 16
33 29 24 20 20 19 19 19 20 21 25 29 31 35 41 41 45 38 40 38 33 38 40 34 29 27 25 22 17 13 11 15
35 30 24 21 19 19 18 18 20 21 23 27 31 39 43 46 44 40 40 38 36 38 41 38 32 27 25 23 18 14 12 14
32 28 24 21 19 18 17 18 18 20 24 27 28 32 43 50 47 45 42 41 40 40 44 38 32 27 28 23 19 14 11 10
33 30 26 22 21 20 22 22 19 21 22 26 29 26 30 45 53 51 47 43 43 43 46 41 31 31 30 24 21 16 14 13
34 32 26 22 21 19 21 21 21 21 18 19 18 24 29 39 52 48 48 47 50 48 50 42 35 35 33 29 21 18 19 18
35 31 25 21 20 18 18 17 19 19 22 13 23 28 27 34 42 47 45 45 49 50 50 48 42 38 34 24 14 10 21 21
33 28 23 20 21 21 21 22 22 23 17 19 22 29 29 32 35 31 42 45 45 47 48 47 44 40 37 27 23 15 16 13
32 28 22 21 22 21 20 23 20 19 19 18 25 36 34 33 32 33 43 42 42 46 49 47 43 41 37 32 25 14 16 10
33 28 23 22 21 21 18 16 15 15 16 19 29 36 41 37 36 36 42 41 41 45 49 47 44 40 37 35 32 22 16 15
35 29 25 24 21 19 15 14 12 15 14 18 31 35 38 35 35 38 40 39 40 41 45 47 43 39 35 35 32 28 13 14
35 31 26 24 21 19 15 14 15 13 14 16 32 32 36 34 32 38 40 37 36 37 39 43 42 38 33 35 36 29 23 13

GFSFLT2_850_spd_114.txt.gz
Wind_Speed
17 15 13 11 11 12 16 17 19 20 23 23 25 24 18 16 26 22 19 15 16 17 17 19 21 18 16 17 17 17 15 16
19 17 15 13 13 13 15 18 20 21 24 24 24 22 21 25 26 24 21 14 14 16 17 19 21 19 18 18 15 15 13 13
22 19 17 14 15 14 14 17 21 24 25 26 25 24 28 24 27 24 13 12 18 17 21 22 23 20 20 17 14 12 13 10
25 23 20 17 17 17 16 18 21 24 27 27 26 26 27 25 29 20 17 15 16 20 20 22 22 22 20 16 14 12 9 7
26 25 22 20 20 19 19 21 21 23 25 28 27 27 26 29 22 19 22 20 23 21 21 25 24 20 19 16 10 10 9 9
26 26 25 22 22 21 22 24 25 27 28 29 33 31 27 25 22 22 31 24 26 24 27 26 21 18 18 15 13 11 10 10
25 28 28 27 25 25 25 24 25 27 28 31 33 33 29 26 22 23 27 27 27 26 29 25 22 18 17 15 14 12 12 12
24 29 31 31 29 27 25 25 24 27 28 29 33 34 35 29 27 26 28 30 29 30 27 27 26 18 18 16 13 11 13 13
26 28 33 35 32 28 27 25 25 25 27 27 30 34 37 37 32 28 28 33 30 29 27 28 20 19 19 17 14 13 13 14
25 27 33 37 35 31 28 26 25 26 26 24 27 30 35 36 33 31 35 34 30 31 31 27 23 22 19 18 16 13 13 15
26 30 33 36 36 33 28 27 24 24 26 25 26 29 33 33 38 33 37 32 32 36 34 27 25 25 20 19 17 14 13 15
24 27 30 34 37 33 29 27 26 24 26 27 28 30 34 35 39 36 38 36 34 36 38 29 26 27 22 19 17 14 14 15
22 25 28 35 39 37 32 30 27 24 24 27 28 28 33 33 38 35 41 41 39 41 36 30 28 27 24 21 16 14 14 15
20 24 28 35 38 36 32 29 25 24 25 25 28 29 30 33 34 39 43 44 41 42 40 34 31 31 30 25 17 14 14 17
19 24 28 32 32 34 27 19 23 24 24 26 27 28 32 32 38 39 45 49 49 46 41 37 38 35 30 28 21 18 20 18
19 22 27 28 29 29 28 23 19 21 23 25 26 25 28 32 31 37 49 52 50 51 46 42 37 36 30 24 20 18 25 16
19 23 26 29 28 24 23 18 16 15 17 21 24 27 28 32 31 38 41 53 53 52 50 46 42 38 35 29 22 18 17 14
18 22 28 33 32 25 22 21 19 20 19 22 26 27 30 32 29 32 42 46 49 50 51 51 47 41 37 30 26 24 20 16
18 25 30 32 33 28 23 20 20 21 20 20 25 27 32 30 32 33 43 50 41 55 53 53 46 43 43 34 25 22 17 17
18 26 28 31 31 26 22 19 16 16 16 18 19 21 26 28 31 36 40 44 48 55 49 52 50 45 45 36 27 22 18 16

GFSFLT2_850_spd_117.txt.gz
Wind_Speed
16 15 13 10 7 8 10 12 13 14 14 17 19 18 13 15 14 17 18 17 15 12 14 18 20 17 14 17 21 15 13 15
18 17 15 12 9 9 10 12 15 16 17 18 18 17 14 12 13 19 18 16 16 15 14 20 20 18 15 17 21 15 16 12
16 17 17 15 12 10 11 13 17 18 19 20 19 19 17 14 20 21 18 17 14 15 17 20 20 19 16 16 16 12 13 12
18 18 17 18 15 14 13 14 17 20 21 21 22 19 19 20 20 22 21 14 11 15 16 18 21 20 18 18 15 14 11 9
20 20 19 19 18 17 15 15 14 16 20 20 23 21 21 22 22 24 23 15 14 19 16 19 21 19 20 19 13 13 10 10
21 22 21 24 20 21 16 18 16 16 18 23 23 23 24 22 20 19 25 20 22 22 22 19 19 19 19 17 13 11 11 11
22 23 23 24 26 22 20 21 19 19 19 22 25 24 26 26 21 22 23 24 25 22 19 21 20 19 17 16 13 12 13 9
23 24 25 25 27 29 27 22 22 24 24 23 26 27 28 27 26 24 20 25 30 25 23 25 23 21 20 15 15 13 13 10
24 25 26 27 29 31 30 23 22 25 25 25 28 28 30 29 27 27 27 28 27 22 27 26 23 21 20 18 16 14 14 15
24 25 28 30 26 25 24 27 25 24 23 24 27 27 29 30 28 30 27 24 26 28 29 28 24 21 20 22 18 15 15 16
22 26 28 31 28 25 25 26 27 25 24 23 24 27 27 30 32 32 29 29 28 31 29 27 28 25 23 22 20 16 15 16
22 25 29 31 30 28 25 26 29 28 26 24 22 24 25 27 31 31 32 32 31 32 28 29 27 25 24 22 22 21 16 17
21 24 28 32 33 35 39 35 30 29 26 24 24 24 24 27 28 32 32 34 33 32 30 33 30 27 27 26 20 20 19 17
21 23 27 32 38 41 31 26 25 20 20 20 23 26 29 29 29 32 32 35 34 34 35 40 34 29 32 29 20 19 20 18
22 23 26 33 40 33 23 22 25 27 26 23 21 22 28 31 32 33 32 32 44 41 39 43 40 36 33 34 23 17 23 20
22 23 25 35 33 29 29 25 27 24 19 19 22 23 26 30 30 33 33 35 41 39 42 43 40 39 36 32 24 21 29 23
20 22 25 31 29 28 30 25 18 15 17 18 20 18 22 25 30 34 33 44 48 46 45 44 45 41 43 37 30 18 27 24
19 21 25 28 31 30 27 26 21 19 18 17 19 20 22 25 27 30 33 36 48 47 46 49 46 42 39 39 30 24 28 23
16 20 24 29 33 30 26 23 22 19 17 17 18 20 25 29 31 31 34 31 43 54 47 51 50 46 39 37 29 26 24 23
14 17 24 32 30 29 24 22 19 17 18 15 18 19 23 29 30 29 33 34 33 44 51 49 53 49 43 37 32 30 22 22

GFSFLT2_850_spd_120.txt.gz
Wind_Speed
15 15 13 10 6 5 5 6 7 7 8 9 7 8 10 6 10 9 11 14 16 14 14 15 17 19 18 21 18 16 16 14
16 16 14 12 9 6 6 7 9 10 11 10 9 9 10 9 8 12 17 15 15 12 14 16 19 18 18 22 17 16 15 13
17 17 17 16 13 10 9 9 10 11 13 13 12 12 12 18 9 14 19 18 14 14 14 16 17 18 17 19 17 12 14 15
18 17 18 19 17 14 13 11 11 13 15 15 16 16 16 17 12 19 20 18 15 15 15 16 18 18 20 21 19 16 14 13
21 19 19 19 20 18 16 14 14 15 17 16 18 19 16 15 15 19 19 19 18 15 17 17 20 20 21 22 20 16 14 13
23 23 22 20 21 21 18 17 15 13 14 16 16 20 20 19 22 22 23 24 19 16 17 18 21 21 21 22 16 16 14 15
26 26 25 24 23 22 21 20 18 15 15 15 21 22 22 22 23 20 23 27 20 16 18 20 22 21 21 20 19 12 18 15
25 25 28 28 26 25 23 24 20 22 22 18 19 22 22 22 24 25 23 20 22 18 20 23 23 22 20 19 19 12 11 9
25 27 27 31 30 28 28 30 28 26 26 21 19 20 22 22 28 29 25 21 22 24 21 19 21 22 22 19 19 16 14 10
31 31 31 32 33 30 33 33 28 28 24 23 21 20 22 24 26 26 24 25 25 27 29 21 24 23 24 21 19 19 18 12
35 34 32 31 35 33 27 32 30 29 26 23 23 21 22 25 26 26 27 28 26 25 27 23 29 26 24 25 22 20 22 15
28 32 35 32 34 33 27 25 28 28 28 24 23 22 23 24 27 27 29 30 29 26 28 28 30 28 24 26 27 21 20 21
27 21 30 33 35 37 35 32 33 33 29 25 22 21 23 25 27 28 29 32 31 28 28 31 33 29 27 26 26 20 19 23
28 29 23 32 36 39 37 33 34 30 32 28 25 23 22 25 27 29 30 31 33 31 30 34 29 35 31 33 23 22 24 22
27 26 24 32 35 34 34 34 29 24 30 28 27 26 25 25 28 29 30 34 34 33 32 36 36 39 32 35 19 14 30 23
32 24 25 30 36 39 38 36 35 33 32 29 26 24 25 29 29 31 31 31 33 33 36 34 39 45 33 31 32 26 35 24
26 26 26 30 37 41 35 34 33 26 29 29 29 25 21 23 29 32 31 33 31 34 38 41 41 46 42 36 33 23 33 31
29 28 26 31 36 34 30 33 30 25 23 23 22 22 23 25 24 30 34 34 32 35 40 37 44 45 49 41 41 31 34 29
17 21 21 27 32 27 29 31 27 23 23 25 24 21 21 22 24 26 31 32 33 36 36 42 42 48 48 46 44 40 30 28
15 17 24 16 27 22 28 26 28 23 21 21 24 21 23 26 24 24 26 27 29 31 41 46 48 49 49 46 45 43 27 32

GFSFLT2_850_spd_123.txt.gz
Wind_Speed
17 17 14 11 8 6 6 6 6 7 7 8 9 11 12 7 14 18 11 20 21 18 15 13 15 21 24 22 20 19 15 11
18 18 17 15 11 9 9 8 7 7 8 9 11 13 12 6 16 14 22 18 17 14 12 13 15 20 22 21 17 18 16 14
21 20 20 18 15 12 12 10 9 8 9 10 12 13 14 10 13 9 17 19 17 14 13 15 17 19 21 18 16 18 19 17
21 21 22 20 19 16 14 13 11 10 10 11 12 13 13 12 13 10 19 20 16 15 16 18 21 19 20 19 19 17 17 16
21 21 21 22 22 20 18 16 15 14 13 12 12 14 15 15 16 15 21 22 20 20 18 19 23 23 22 24 20 17 15 15
21 21 22 22 23 23 21 19 18 17 16 15 14 15 18 17 20 20 24 24 24 20 19 20 23 24 22 24 22 19 19 19
21 21 22 22 23 23 23 21 20 18 17 16 16 16 18 19 19 21 26 26 25 21 18 21 22 23 23 25 22 21 20 18
29 25 22 22 24 24 24 23 21 20 18 16 17 18 18 18 19 24 26 25 24 21 19 20 21 22 24 23 22 21 18 17
36 32 27 25 24 24 25 25 23 22 21 19 19 20 20 17 21 26 27 23 23 21 22 20 20 22 21 24 22 17 20 20
31 31 32 29 28 26 27 27 26 25 26 24 23 22 22 19 24 29 27 24 22 24 25 25 23 24 23 25 22 19 19 15
37 38 37 35 32 28 29 29 30 31 30 28 26 25 23 22 26 29 30 28 25 26 28 26 24 24 26 25 22 21 20 16
43 42 41 39 33 30 29 29 30 32 32 32 29 28 24 24 28 30 33 31 28 28 30 29 25 26 29 26 22 23 21 18
43 43 44 42 38 34 31 31 32 35 35 28 25 28 27 25 26 30 33 32 30 31 32 30 30 29 33 29 22 24 23 21
40 36 42 42 39 35 31 29 31 31 33 27 27 29 29 28 27 29 32 32 31 33 33 32 31 34 35 32 26 21 26 25
27 29 36 39 39 36 34 29 29 31 31 30 30 29 30 28 28 29 32 33 32 35 35 35 37 38 36 31 19 14 32 27
24 30 33 34 34 38 35 36 36 38 35 36 31 30 28 28 27 28 31 36 36 36 37 36 38 43 40 40 35 28 38 28
27 30 32 30 32 33 35 35 36 37 33 29 30 32 31 29 29 31 32 37 37 36 38 38 38 43 43 45 38 20 36 32
29 30 27 29 30 33 35 34 33 32 31 29 30 28 26 29 29 30 31 35 37 39 38 37 38 45 46 45 46 33 39 34
26 24 24 24 28 30 34 32 34 34 32 29 30 31 29 29 28 29 34 34 34 37 37 37 38 41 42 51 48 38 33 39
22 23 14 16 20 27 30 28 29 31 28 28 24 25 23 24 25 26 28 34 35 35 36 37 39 42 45 53 50 47 34 35

GFSFLT2_850_spd_126.txt.gz
Wind_Speed
22 19 17 14 11 9 8 8 11 11 11 12 14 14 13 10 13 17 11 21 23 19 18 20 19 21 22 21 19 19 16 16
24 21 20 18 14 11 10 9 9 12 13 12 15 16 13 13 16 16 10 26 22 19 17 18 19 22 21 20 18 18 17 13
24 23 23 21 18 15 13 12 11 12 15 14 16 18 15 15 16 16 19 24 21 17 19 18 18 21 21 19 18 18 15 14
26 24 24 24 22 19 15 14 13 13 15 17 16 17 16 14 18 14 22 20 19 18 18 18 19 23 21 19 18 19 17 16
28 27 26 27 25 23 20 18 16 16 15 16 17 17 19 18 19 17 24 25 23 20 18 20 22 24 24 23 20 19 20 18
29 28 28 30 27 26 23 22 20 19 18 18 19 19 19 20 20 17 24 28 27 23 21 22 25 24 24 26 23 21 21 17
30 30 29 29 29 28 26 25 23 21 20 19 19 19 18 20 21 21 23 27 27 25 23 23 25 26 24 24 25 21 22 19
28 29 29 28 29 28 29 27 26 24 23 22 20 19 18 19 21 23 24 26 26 25 24 21 22 26 25 25 23 22 23 21
35 34 30 28 26 27 27 28 27 27 26 23 21 20 20 20 20 23 25 26 25 26 22 20 21 22 24 24 24 23 24 20
35 37 36 32 29 26 26 28 28 28 27 25 24 21 21 21 20 23 26 28 28 26 25 23 21 22 22 24 26 23 23 20
38 38 39 38 35 33 29 28 28 29 28 27 25 23 22 22 22 23 27 29 28 27 27 25 26 22 27 25 25 25 22 23
37 38 37 42 41 39 34 28 28 28 29 29 26 25 24 24 24 25 28 30 30 27 26 27 28 25 26 28 26 26 26 25
46 41 39 47 49 44 38 34 31 31 31 30 29 29 27 27 26 26 31 32 31 28 29 31 31 28 27 30 29 27 29 26
47 46 45 48 51 47 43 37 32 31 32 31 32 31 30 30 29 29 34 34 34 33 33 36 34 34 30 34 18 26 33 31
48 48 49 51 52 53 46 39 34 32 33 32 32 31 31 31 32 32 34 36 37 36 36 39 40 38 34 29 19 12 33 34
49 56 47 49 54 53 48 43 39 36 35 35 29 32 31 32 32 32 32 33 37 34 35 40 42 41 40 43 36 21 34 20
30 35 40 44 50 50 46 42 37 36 36 32 30 31 32 31 31 30 31 33 34 34 34 38 42 42 43 44 41 32 34 29
25 25 33 39 44 47 43 41 38 37 33 31 31 31 33 32 32 32 32 31 34 35 36 36 40 43 43 46 50 42 38 36
31 34 37 42 45 41 36 35 37 33 29 27 27 31 33 34 34 34 34 32 33 34 37 39 38 42 43 46 50 51 40 38
28 30 29 31 35 33 35 35 30 28 28 26 26 28 30 29 29 32 33 32 33 32 36 36 37 40 45 45 49 53 50 44

GFSFLT2_850_spd_132.txt.gz
Wind_Speed
29 27 23 20 17 14 12 11 11 12 12 12 13 13 14 13 15 17 15 12 14 17 19 18 18 18 18 16 15 15 14 14
30 28 25 22 19 16 13 11 10 11 12 13 14 14 15 13 15 17 14 16 15 17 18 20 20 18 16 15 13 14 15 15
32 29 26 24 21 19 16 13 12 12 13 14 15 15 16 13 15 15 18 16 16 17 19 20 19 17 14 13 13 14 13 14
35 32 29 27 25 22 19 17 14 13 14 15 16 16 16 14 17 17 17 18 17 18 19 19 17 18 19 14 13 14 13 13
36 33 31 29 28 25 23 20 17 16 15 15 16 17 18 16 18 17 14 21 24 21 21 20 19 18 18 19 16 16 16 13
37 35 33 31 29 28 25 23 21 19 18 17 18 18 20 18 20 17 17 23 24 23 22 20 18 17 19 19 19 20 19 16
38 36 35 34 33 30 29 27 25 22 21 20 19 18 19 20 20 20 20 24 23 22 21 20 19 19 20 21 19 18 18 18
37 37 37 36 35 33 31 29 28 26 24 23 22 21 18 19 21 23 21 25 24 23 20 20 19 19 20 21 20 18 16 18
31 35 37 40 38 37 34 32 30 29 28 26 26 24 21 18 19 23 23 21 26 25 22 20 20 18 18 19 19 19 17 20
34 35 37 42 43 40 38 37 34 33 31 30 28 27 25 22 20 22 23 22 21 24 24 21 21 19 19 20 20 20 19 22
37 39 40 39 46 44 40 39 37 35 34 33 31 30 28 27 22 20 23 23 22 24 26 24 23 21 19 20 20 21 20 21
32 43 40 38 44 47 43 40 39 38 37 36 34 32 31 30 28 23 23 24 24 25 27 26 24 22 20 19 19 21 21 22
38 38 40 42 43 50 47 44 41 40 38 37 35 34 33 33 31 28 25 26 25 26 28 28 27 24 21 20 21 21 21 21
33 35 37 41 44 43 50 46 45 42 40 38 37 35 34 34 33 32 30 27 27 28 31 31 29 27 26 22 14 22 24 25
33 33 33 40 41 44 48 47 45 44 42 39 38 36 36 36 34 33 32 30 29 29 31 33 32 31 29 22 10 13 19 27
32 29 34 31 40 47 50 52 52 51 48 45 38 36 36 36 35 34 33 32 32 31 31 33 33 32 31 33 27 15 13 10
31 27 26 27 37 42 52 55 51 50 52 47 42 38 35 35 34 34 32 34 34 32 32 33 34 32 32 32 36 30 22 20
30 23 16 13 30 36 50 56 53 52 49 49 46 42 35 34 34 33 33 33 35 32 30 30 30 32 34 36 35 38 34 28
25 26 27 25 20 35 47 49 51 52 54 52 49 42 37 36 36 37 34 33 35 33 35 34 34 34 36 36 36 38 39 37
25 22 33 28 24 36 45 44 45 48 51 49 50 43 36 36 36 37 32 31 34 34 34 33 34 33 35 36 34 36 37 39

GFSFLT2_850_spd_135.txt.gz
Wind_Speed
26 25 24 21 20 17 17 16 16 16 16 15 14 14 14 13 14 14 15 14 13 14 17 17 16 16 17 17 17 17 16 14
27 26 25 24 22 19 17 17 16 16 16 15 14 14 15 14 13 15 15 14 12 15 19 18 18 18 18 17 17 15 14 15
29 28 28 27 25 22 20 19 18 17 16 16 16 16 17 15 14 15 15 13 13 15 17 20 20 20 18 18 16 15 14 14
32 31 30 29 26 24 23 22 22 21 19 18 17 17 17 15 14 15 15 16 14 16 18 18 18 19 20 17 15 15 14 13
34 33 32 31 28 26 26 25 24 23 21 18 17 18 18 18 16 18 19 18 18 19 18 21 20 19 20 19 16 18 14 14
35 35 35 33 31 30 29 27 25 24 23 21 18 18 19 18 18 19 18 19 22 20 21 22 21 20 17 18 17 17 16 15
37 38 38 36 34 33 32 30 28 24 24 23 21 19 19 19 20 19 17 16 22 23 22 23 23 19 19 17 16 14 14 14
31 37 40 39 37 35 34 33 31 29 25 25 24 21 19 19 21 21 18 19 21 24 22 20 18 18 18 19 18 15 15 16
25 34 30 40 42 39 37 37 35 33 29 27 27 25 23 21 21 23 22 22 22 23 22 20 19 18 16 18 18 15 16 15
25 28 38 38 42 40 41 40 38 36 35 31 30 29 27 25 23 22 24 24 24 25 23 21 20 18 18 18 16 16 18 19
34 30 31 40 41 43 44 44 42 39 38 36 33 32 31 28 26 23 24 26 25 25 26 24 22 20 19 17 17 16 17 18
40 34 32 32 42 46 49 50 47 42 38 39 37 36 34 32 30 26 25 27 26 25 26 27 24 21 20 18 17 18 18 18
40 40 35 32 37 46 48 52 51 46 40 40 40 38 37 36 34 31 28 28 28 26 27 28 28 25 22 20 19 18 20 19
38 39 37 33 36 42 44 46 52 48 42 41 40 39 40 39 38 36 33 30 30 30 30 32 31 29 27 20 12 19 22 22
43 43 39 34 32 38 40 39 43 49 47 43 40 41 42 40 40 39 37 34 33 32 32 34 34 32 32 18 9 11 17 26
41 43 40 36 33 37 39 46 47 53 49 43 43 43 41 41 41 39 39 38 36 33 32 34 35 36 33 30 24 12 9 8
38 40 39 33 34 37 42 46 45 45 49 47 46 45 41 41 41 40 41 40 38 36 33 34 36 35 36 32 31 26 21 17
35 36 38 31 34 38 40 45 45 45 46 48 48 48 44 43 42 41 41 39 38 36 32 31 34 36 34 33 31 25 24 25
31 36 34 31 34 37 40 42 43 47 47 48 48 50 48 47 43 43 42 39 36 32 34 34 33 34 34 34 33 29 23 27
21 26 28 31 30 25 23 32 42 47 43 46 49 49 50 49 46 44 42 38 34 33 33 34 33 31 32 30 31 32 32 30

GFSFLT2_850_spd_141.txt.gz
Wind_Speed
9 12 18 17 16 15 14 14 13 13 14 15 16 16 16 15 13 13 12 12 12 11 11 11 11 12 13 11 10 9 4 8
9 11 18 18 17 18 17 16 16 15 16 16 16 16 17 16 15 14 14 14 13 12 11 12 13 13 15 12 12 12 9 6
9 11 13 15 18 19 20 19 18 17 18 18 17 17 17 17 16 15 15 15 14 12 12 13 13 13 13 12 15 10 11 9
10 11 12 13 18 22 22 20 19 19 20 17 19 14 13 13 13 17 16 16 15 14 13 13 14 16 15 15 15 16 9 10
10 13 14 15 13 19 22 20 17 17 19 18 17 17 17 15 15 19 18 17 16 15 15 16 18 15 14 17 17 13 14 12
11 13 16 17 16 17 17 21 25 18 20 21 19 20 19 15 14 14 14 15 12 12 14 16 19 17 17 17 18 15 16 13
14 14 15 19 20 19 19 22 28 30 26 25 25 20 18 17 17 15 15 14 15 15 16 18 20 21 16 16 15 15 15 13
18 17 17 19 24 24 23 24 24 30 31 30 27 21 21 18 19 18 17 16 16 17 18 20 18 18 17 16 13 16 16 13
22 22 22 23 24 28 28 27 27 29 34 34 33 28 24 21 20 19 18 18 18 18 21 17 18 16 15 13 15 16 18 15
26 26 28 29 26 30 33 32 32 30 31 36 36 35 28 26 22 21 19 19 18 21 22 22 20 17 15 15 15 17 16 15
34 34 35 34 34 31 37 38 38 37 34 36 39 39 35 29 26 24 24 20 19 24 24 22 18 19 16 17 17 14 16 14
41 36 35 39 37 39 34 42 43 41 39 38 40 41 43 37 29 27 28 24 23 27 27 22 19 17 17 21 16 13 14 16
42 41 36 37 40 39 44 40 45 44 43 43 42 44 45 44 37 34 34 30 27 27 27 24 22 20 18 16 18 20 20 20
38 42 39 36 40 43 40 45 44 47 46 46 46 50 46 49 45 39 39 33 30 30 27 25 24 25 24 14 13 17 21 23
40 41 40 40 35 41 41 42 43 47 48 47 47 50 46 48 49 43 44 38 37 37 32 28 31 27 29 16 11 11 15 18
41 40 40 41 40 36 45 41 45 46 46 48 46 49 46 47 47 48 49 42 41 39 35 32 29 34 30 26 19 9 11 7
41 39 39 38 39 39 46 43 43 44 47 49 46 45 47 44 46 47 50 47 45 43 38 36 37 30 31 29 28 21 15 15
43 34 35 35 34 38 41 45 42 42 43 44 45 41 47 42 46 45 48 49 46 46 42 41 40 34 24 27 27 27 24 19
45 34 34 27 26 34 42 41 53 39 45 46 47 40 35 39 44 48 48 51 48 45 45 43 42 36 33 29 29 25 25 22
43 36 32 23 21 31 37 41 45 40 38 43 50 48 20 36 43 48 50 52 50 47 45 43 42 40 36 33 27 28 29 26

GFSFLT2_850_spd_144.txt.gz
Wind_Speed
10 12 10 13 12 12 11 10 10 10 10 10 12 14 13 13 12 11 10 10 10 9 9 9 8 9 10 11 11 10 8 10
5 11 8 13 13 13 13 13 13 12 12 13 14 14 15 15 14 13 12 12 11 10 10 10 10 10 10 12 7 12 7 12
6 5 11 11 13 16 15 15 15 15 15 15 16 16 16 16 15 14 14 14 12 11 11 11 12 11 12 12 9 12 10 14
8 7 8 13 9 14 15 18 18 18 18 18 18 17 15 15 13 16 15 15 14 14 13 12 13 14 14 14 14 14 9 14
13 10 13 13 12 15 18 17 19 22 21 21 20 19 14 15 16 18 17 17 17 17 16 17 17 15 15 14 13 9 10 13
13 12 11 13 16 16 21 17 20 22 24 24 21 21 22 19 18 16 18 20 18 15 16 17 18 15 12 13 17 11 6 8
19 18 16 13 17 22 20 21 23 24 20 24 27 24 24 22 20 20 14 13 10 17 12 14 18 17 17 17 17 15 12 11
20 19 20 22 24 20 25 22 28 30 29 31 27 28 26 26 24 22 17 18 14 17 16 16 17 20 19 15 15 13 12 10
24 22 25 25 21 27 21 31 29 33 35 37 35 31 28 23 22 25 24 21 17 20 19 20 19 21 22 19 16 15 13 13
27 28 32 35 32 29 33 24 34 36 39 39 38 37 33 30 30 29 28 24 25 22 22 22 20 21 19 19 17 16 16 16
38 41 43 34 36 31 33 41 31 37 40 43 44 40 39 36 36 32 30 27 30 30 26 27 23 22 17 16 16 17 17 18
41 42 45 41 40 37 29 39 46 35 39 45 45 46 42 42 39 36 31 31 32 30 29 31 27 25 18 22 22 17 14 16
43 43 43 42 44 39 36 26 42 47 41 42 47 49 46 47 45 41 36 37 35 34 30 31 30 28 22 21 21 18 18 18
43 44 41 44 44 41 41 39 28 45 46 47 47 53 52 49 52 48 43 42 39 37 33 36 31 28 30 24 13 21 22 21
47 46 45 43 42 42 38 46 39 38 45 46 54 51 58 54 55 54 48 46 45 41 38 36 36 33 34 22 9 11 17 25
46 45 42 42 40 41 41 40 49 33 48 51 51 64 70 67 57 58 52 51 49 45 41 36 36 37 36 34 17 8 12 8
46 44 43 42 41 40 41 43 50 48 40 49 55 58 63 55 57 58 54 55 53 49 47 42 36 38 39 37 32 23 14 9
45 44 45 41 37 36 38 40 43 51 40 42 53 63 50 43 54 54 54 55 52 52 50 45 40 39 37 36 36 33 28 21
46 46 47 39 36 33 33 35 38 52 46 47 46 55 61 55 52 54 54 58 57 53 51 47 43 42 41 37 31 36 31 30
46 46 45 38 35 35 32 27 29 41 44 49 56 45 56 61 56 50 56 52 52 51 53 49 44 44 40 35 31 31 29 29